Regional Weather Roundup
Issued by NWS Northern Indiana

Home | Current Version | Previous Version | Text Only | Print | Product List | Glossary On
Versions: 1 2 3 4 5 6 7 8 9 10 11 12 13 14 15 16 17 18 19 20 21 22 23 24 25 26 27 28 29 30 31 32 33 34 35 36 37 38 39 40 41 42 43 44 45 46 47 48 49 50
000
ASUS43 KIWX 220010
RWRIWX

KIWX WEATHER ROUNDUP
NATIONAL WEATHER SERVICE NORTHERN INDIANA
700 PM EST SUN DEC 21 2014

NOTE: "FAIR" INDICATES FEW OR NO CLOUDS BELOW 12,000 FEET WITH NO
SIGNIFICANT WEATHER AND/OR OBSTRUCTIONS TO VISIBILITY.

* THESE STATIONS ARE NOT UNDER NWS QUALITY CONTROL. THEY ALSO MAY NOT
  REPORT WEATHER SUCH AS PRECIPITATION OR FOG.

INZ001>027-220100-
NORTHERN INDIANA

CITY           SKY/WX    TMP DP  RH WIND       PRES   REMARKS
GARY*          CLOUDY    37  27  65 SE7       30.11S
VALPARAISO     MOCLDY    32  27  81 SE7       30.12R WCI  26
6HR MIN TEMP:  32; 6HR MAX TEMP:  36;

MICHIGAN CITY* PTCLDY    32  25  74 SE3       30.12S
LAPORTE*       PTCLDY    33  29  85 SE5       30.12S WCI  29
6HR MIN TEMP:  33; 6HR MAX TEMP:  38;

KNOX*          MOCLDY    32  25  74 SE7       30.11F WCI  26
6HR MIN TEMP:   9; 6HR MAX TEMP:  81;

SOUTH BEND     NOT AVBL
GOSHEN         PTCLDY    31  26  82 SE9       30.14S HAZE    WCI  23
6HR MIN TEMP:  31; 6HR MAX TEMP:  38;

MONTICELLO*    PTCLDY    32  28  85 SE7       30.12S WCI  26
6HR MIN TEMP:  32; 6HR MAX TEMP:  38;

LOGANSPORT*    PTCLDY    30  27  86 SE7       30.13F FOG     WCI  23
ROCHESTER*     PTCLDY    34  30  86 SE8       30.13F WCI  27
WARSAW*        PTCLDY    32  27  80 SE7       30.14F WCI  26
ANGOLA*        CLEAR     30  25  80 SE7       30.16S WCI  23
FORT WAYNE     PTCLDY    29  25  85 E7        30.17F WCI  22
6HR MIN TEMP:  29; 6HR MAX TEMP:  36;

HUNTINGTON*    CLEAR     30  26  85 SE5       30.15F WCI  25
6HR MIN TEMP:  30; 6HR MAX TEMP:  36;

PERU/GRISSOM   PTCLDY    32  32 100 SE9       30.12F WCI  24
6HR MIN TEMP:  31; 6HR MAX TEMP:  38;

MARION*        PTCLDY    31  26  83 SE6       30.14F WCI  25
6HR MIN TEMP:  22; 6HR MAX TEMP:  50;


$$
INZ028>050-220100-
CENTRAL INDIANA

CITY           SKY/WX    TMP DP  RH WIND       PRES   REMARKS
LAFAYETTE      PTCLDY    32  26  78 SE8       30.12S WCI  25
6HR MIN TEMP:  32; 6HR MAX TEMP:  38;

KOKOMO*        PTCLDY    30  27  86 SE8       30.13F WCI  23
6HR MIN TEMP:  30; 6HR MAX TEMP:  37;

MUNCIE*        CLEAR     29  26  89 SE5       30.15F FOG     WCI  24
6HR MIN TEMP:  29; 6HR MAX TEMP:  37;

INDIANAPOLIS   MOCLDY    31  26  82 E8        30.11F WCI  23
6HR MIN TEMP:  30; 6HR MAX TEMP:  36;


$$
MIZ043>046-050>051-056>058-064>065-071>073-077>080-220100-
SOUTHWEST LOWER MICHIGAN

CITY           SKY/WX    TMP DP  RH WIND       PRES   REMARKS
BATTLE CREEK   PTCLDY    32  24  72 SE8       30.16S WCI  25
6HR MIN TEMP:  32; 6HR MAX TEMP:  35;

BENTON HARBOR  MOCLDY    32  27  81 SE8       30.12F WCI  25
6HR MIN TEMP:  31; 6HR MAX TEMP:  37;

COLDWATER*     PTCLDY    30  26  83 MISG      30.16S
6HR MIN TEMP:  30; 6HR MAX TEMP:  33;

HILLSDALE*     MOCLDY    31  27  88 SE6       30.17R FOG     WCI  25
6HR MIN TEMP:  31; 6HR MAX TEMP:  33;

HOLLAND        CLOUDY    36  27  69 SE12      30.13F
6HR MIN TEMP:  35; 6HR MAX TEMP:  37;

GRAND RAPIDS   MOCLDY    29  23  78 SE8       30.15S WCI  21
6HR MIN TEMP:  29; 6HR MAX TEMP:  35;

KALAMAZOO      PTCLDY    32  24  72 SE8       30.15S WCI  25
6HR MIN TEMP:  32; 6HR MAX TEMP:  35;

STURGIS*       PTCLDY    30  27  86 SE8       30.15S WCI  23
THREE RIVERS*  FAIR      32  26  78 SE7       30.15F WCI  25

$$
OHZ001>008-015>018-024>025-220100-
NORTHWEST OHIO

CITY           SKY/WX    TMP DP  RH WIND       PRES   REMARKS
WAUSEON*       MOCLDY    28  27  93 E6        30.20F WCI  22
DEFIANCE       PTCLDY    29  24  82 E6        30.20F WCI  23
6HR MIN TEMP:  29; 6HR MAX TEMP:  35;

FINDLAY        CLEAR     30  24  78 E6        30.19F WCI  24
6HR MIN TEMP:  30; 6HR MAX TEMP:  36;

TOLEDO EXPRESS PTCLDY    28  23  81 CALM      30.22S
6HR MIN TEMP:  28; 6HR MAX TEMP:  34;

TOLEDO METCALF PTCLDY    30  22  72 E3        30.23S
6HR MIN TEMP:  29; 6HR MAX TEMP:  36;

LIMA           PTCLDY    31  24  75 SE7       30.18F WCI  24
6HR MIN TEMP:  31; 6HR MAX TEMP:  39;


$$
AND FOR LAKE MICHIGAN COASTAL AND OPEN LAKE BUOY OBSERVATIONS

STATION/POSITION TEMP    WIND        PRES    VSBY  WAVE
                 AIR SEA DIR/SP/G                  HT/PER
                 (F)     (DEG/KT/KT) (MB)    (MI)  (FT/S)
CALUMET HARBOR    36     150/  5/  8 1018.1S
SAINT JOSEPH      34      CALM  /  7 1020.0F

$$
&&



USA.gov is the U.S. government's official web portal to all federal, state and local government web resources and services.